Change the Weather History Date:

Saturday, December 29, 2012

  Actual Average Record
Temperature  
Mean Temperature 56 °F -  
Max Temperature 72 °F - - ()
Min Temperature 39 °F - - ()
Degree Days  
Heating Degree Days 10    
Growing Degree Days 6 (Base 50)    
Moisture  
Dew Point 40 °F    
Average Humidity 64    
Maximum Humidity 87    
Minimum Humidity 23    
Precipitation  
Precipitation 0.00 in - - ()
Sea Level Pressure  
Sea Level Pressure 30.38 in    
Wind  
Wind Speed 5 mph ()    
Max Wind Speed 12 mph    
Max Gust Speed -    
Visibility 6.0 miles    
Events      
T = Trace of Precipitation, MM = Missing Value Source: Averaged Metar Reports

Daily Weather History Graph

Daily Weather History Graph

Search for Another Location

Airport or City:

Trip Planner

Search our weather history database for the weather conditions in past years. The results will help you decide how hot, cold, wet, or windy it might be!

Date:

Astronomy

Dec. 29, 2012 Rise Set
Actual Time 7:33 AM WET 5:46 PM WET
Civil Twilight 7:07 AM WET 6:12 PM WET
Nautical Twilight 6:37 AM WET 6:42 PM WET
Astronomical Twilight 6:07 AM WET 7:11 PM WET
Moon 7:00 PM WET (12/29) 8:03 AM WET (12/29)
Length of Visible Light 11h 05m
Length of Day
10h 12m
Full, 99% of the Moon is Illuminated
Dec 29
Full
Jan 5
Last Quarter
Jan 11
New
Jan 18
First Quarter
Jan 27
Full

Hourly Weather History & Observations

Time (WET) Temp. Windchill Dew Point Humidity Pressure Visibility Wind Dir Wind Speed Gust Speed Precip Events Conditions
12:00 AM 51 °F - 47 °F 81% 30.41 in 6 mi ESE 4.6 mph - -  
12:00 AM 51.8 °F - 46.4 °F 82% 30.39 in - ESE 4.6 mph - N/A   Clear
1:00 AM 46.4 °F 44.3 °F 41.0 °F 81% 30.39 in - ESE 4.6 mph - N/A   Clear
2:00 AM 44.6 °F 42.2 °F 41.0 °F 87% 30.39 in 6.2 mi NE 4.6 mph - N/A   Unknown
3:00 AM 44 °F - 40 °F 79% 30.41 in 6 mi ENE 6.9 mph - -  
3:00 AM 44.6 °F 40.7 °F 39.2 °F 81% 30.39 in - ENE 6.9 mph - N/A   Clear
4:00 AM 42.8 °F 38.6 °F 37.4 °F 81% 30.39 in - East 6.9 mph - N/A   Clear
5:00 AM 41.0 °F 39.0 °F 37.4 °F 87% 30.39 in - ENE 3.5 mph - N/A   Clear
6:00 AM 41 °F - 36 °F 77% 30.41 in 6 mi East 6.9 mph - -  
6:00 AM 41.0 °F 36.4 °F 35.6 °F 81% 30.39 in - East 6.9 mph - N/A   Clear
7:00 AM 39.2 °F 35.9 °F 35.6 °F 87% 30.42 in - ENE 4.6 mph - N/A   Clear
8:00 AM 39.2 °F 37.0 °F 35.6 °F 87% 30.42 in - NE 3.5 mph - N/A   Clear
9:00 AM 47 °F - 38 °F 63% 30.45 in 6 mi ENE 6.9 mph - -  
9:00 AM 46.4 °F 42.9 °F 39.2 °F 76% 30.42 in - ENE 6.9 mph - N/A   Clear
10:00 AM 55.4 °F - 39.2 °F 54% 30.45 in - ENE 4.6 mph - N/A   Clear
11:00 AM 62.6 °F - 37.4 °F 39% 30.42 in - ENE 5.8 mph - N/A   Clear
12:00 PM 67 °F - 38 °F 23% 30.41 in 6 mi NE 2.3 mph - -  
12:00 PM 66.2 °F - 37.4 °F 35% 30.39 in - Variable 2.3 mph - N/A   Clear
1:00 PM 71.6 °F - 35.6 °F 27% 30.36 in - Calm Calm - N/A   Clear
2:00 PM 71.6 °F - 35.6 °F 27% 30.33 in - West 4.6 mph - N/A   Clear
3:00 PM 69 °F - 41 °F 24% 30.33 in 6 mi West 11.5 mph - -  
3:00 PM 68.0 °F - 41.0 °F 37% 30.33 in - West 11.5 mph - N/A   Clear
4:00 PM 66.2 °F - 42.8 °F 43% 30.33 in - West 10.4 mph - N/A   Clear
5:00 PM 66.2 °F - 44.6 °F 46% 30.33 in - West 6.9 mph - N/A   Clear
6:00 PM 60 °F - 46 °F 49% 30.35 in 6 mi SSW 3.5 mph - -  
6:00 PM 60.8 °F - 46.4 °F 59% 30.33 in - SSW 3.5 mph - N/A   Clear
7:00 PM 55.4 °F - 46.4 °F 72% 30.33 in - ESE 3.5 mph - N/A   Clear
8:00 PM 50.0 °F - 44.6 °F 82% 30.36 in 6.2 mi East 5.8 mph - N/A   Unknown
9:00 PM 49 °F - 44 °F 75% 30.39 in 6 mi East 4.6 mph - -  
9:00 PM 50.0 °F - 42.8 °F 76% 30.36 in - East 4.6 mph - N/A   Clear
11:00 PM 48.2 °F - 42.8 °F 82% 30.39 in - ENE 5.8 mph - N/A   Clear